Погода Лынтупы

Погода Лынтупы : погода сейчас, прогноз погоды и архив. Всё, что Вы хотите узнать о погоде Лынтупы!

Хотите узнать прогноз погоды Лынтупы? Тогда Вам сюда: Погода Лынтупы

Поиск расширенной информации на нашем сайте:

Другие новости

Новости СМИ2

Главная страница сайта

Новости сайта

02.10.2013

Напоминаем, что на нашем новом сайте вы можете получить высокодетализированные прогнозы погоды по пунктам России, СНГ и мира (включающие важные для авиации метеовеличины, такие как направление и скорость ветра, видимость, явления погоды, количество и форма облачности, нижняя и верхняя граница облачности), а также ознакомиться с разнообразными материалами по авиационной метеорологии и подборкой полезных ссылок на эту тему.

Сайт Метеоцентр.Азия посвящён разработке технологий оптимизации авиаметеорологического обслуживания, включая проектирование и перспективное создание нескольких автоматизированных авиаметеорологических систем:
- система выпуска высокодетальных прогностических карт явлений погоды для нижнего воздушного пространства по России и ближнему зарубежью;
- система верификации прогнозов TAF (выпускаемых синоптиками официальных АМСГ РФ и ближнего зарубежья) и AUTOTAF (выпускаемых сайтом Метеоцентр.Азия) - выявление ошибок, онлайн-сопоставление с фактической погодой METAR, автоматическое внесение коррективов в прогнозы при резком отклонении фактической погоды от прогноза, подсчёт оправдываемости прогнозов по элементам и в целом;
- система обработки, анализа и отображения авиаметеорологической информации для применения провайдерами метеорологической информации.

Рекомендуем: Аренда опалубки колонн стойки для опалубки.

Погода Лынтупы - сегодня

Время (UTC), дата Ветер
(°,м/с) 
Видим.   Явления Облачность Т
(°С)
Тd
(°С)
f(%) Тe
(°С)
Pmin
(гПа)
dP
(гПа)
Po
(мм)
O2
(г/м3)
Тmin Tmax R s Состояние
почвы
06 22.04.17 270 (З) 6-12{13}  10 км  в посл. час ливневой снег{дождь}  9/9 540 м кучево-дожд. 
[Cb cap]
+1.4 +0.3 92 -2  994.9  -0.8  727  291  +1.1       
09 22.04.17 290 (З) 6-12{13}  15000 м  {ливн. осадки}  8/8 600 м кучево-дожд. 
[Cb cap]
+4 +0.9 80 +1  998.3  3.6  730  290           
12 22.04.17 270 (З) 6-12{14}  15000 м  в посл. час крупа{ливн. осадки}  4/4 600 м кучево-дожд. 
[Cb cap]
+5.1 +2.1 81 +3  999.4  1.2  730  289           
15 22.04.17 270 (З) 6-12{15}  15000 м  в посл. час ливневой дождь  8/8 700 м кучево-дожд. 
[Cb cap]
+5.3 -0.8 65 +3  1000.7  1.3  731  289         
18 22.04.17 290 (З) 3{14}  15000 м  в посл. час ливневой снег  6/6 630 м кучево-дожд. 
[Cb cap]
+1.2 -1.1 85 1002.4  1.3  732  294    +7.1     
21 22.04.17 240 (ЮЗ) 10 км    4/4 600 м 
[Sc]
+0.6 -0.8 90 1003.3  0.8  733  295           
00 23.04.17 260 (З) 10 км    8/8 600 м 
[Sc]
+0.2 -0.9 92 -2  1003.3  733  295           
03 23.04.17 280 (З) 10 км    10/10 360 м 
[St]
+0.8 +0.3 96 -1  1003.8  0.3  733  294           
06 23.04.17 290 (З) 15000 м    9/8 570 м средняя 
[Sc|Ac trans]
+2 -1.7 76 +1  1005.2  1.6  734  294  +0.2         
09 23.04.17 300 (СЗ) 15000 м    9/9 660 м 
[Sc]
+4.9 -3.8 53 +4  1006.7  1.7  736  292           
12 23.04.17 270 (З) 4{11}  15000 м  {ливн. осадки}  4/4 600 м кучево-дожд. 
[Cb cap]
+7.3 -4.1 44 +6  1007  0.6  736  289           
18 23.04.17 240 (ЮЗ) 15000 м  {ливн. осадки}  4/3 600 м средняя 
[Sc|Ac trans]
+2.5 -1.4 75 +1  1010.2  1.6  738  295    +7.5  0.9     
21 23.04.17 250 (З) 15000 м    ясно 
+0.2 -1.5 88 -1  1011.4  739  298           
00 24.04.17 тихо ()   15000 м    ясно 
-2 -2.9 94 -2  1011.8  0.1  739  300           
03 24.04.17 тихо ()   15000 м    3/0 верхняя 
[Ci fib]
-2.3 -3.2 94 -2  1011.8  739  301           
06 24.04.17 290 (З) 15000 м    1/0 верхняя 
[Ci sp]
+2.2 -2.1 73 +3  1011.9  0.6  739  296  -3.3         
09 24.04.17 230 (ЮЗ) 15000 м    8/4 600 м верхняя 
[Cu med, cong|Ci sp]
+6.1 -5.5 43 +5  1011.6  0.1  739  292           
12 24.04.17 200 (Ю) 1{10}  15000 м  в посл. час ливневой дождь  8/8 420 м кучево-дожд. 
[Cb cap]
+5 +2.3 83 +6  1011.2  -0.5  739  292           
18 24.04.17 190 (Ю) 1{10}  15000 м  {ливн. осадки}  4/3 600 м верхняя 
[Sc|Ci fib]
+2.3 -0.7 81 +3  1011.8  0.2  739  295    +7.8  0.6     
21 24.04.17 200 (Ю) 15000 м    ясно 
+1.5 -0.7 85 +2  1011.9  739  296           
00 25.04.17 170 (Ю) 15000 м    ясно 
+1.6 -0.3 87 +2  1010.9  -1  739  296           
03 25.04.17 180 (Ю) 15000 м    9/9 800 м 
[Sc]
+1.7 -0.8 83 +1  1009.7  -1.2  738  295           
06 25.04.17 180 (Ю) 15000 м  {ливн. осадки}  10/10 960 м кучево-дожд. 
[Cb cap]
+3.8 +0.9 81 +3  1008.8  -0.6  737  293  +1.3    0.0     
09 25.04.17 180 (Ю) 4{10}  15000 м  {ливн. осадки}  10/0 средняя 
[Ac As]
+8.6 +0.9 58 +7  1007.1  -1.2  736  287           
12 25.04.17 190 (Ю) 6-12{13}  9000 м  слаб. ливневой дождь  10/3 600 м кучево-дожд., средняя 
[Cb cap|Ac As]
+10.4 +1.5 54 +9  1005.1  -1.8  735  285           
Время (UTC), дата Ветер
(°,м/с) 
Видим.   Явления Облачность Т
(°С)
Тd
(°С)
f(%) Тe
(°С)
Pmin
(гПа)
dP
(гПа)
Po
(мм)
O2
(г/м3)
Тmin Tmax R s Состояние
почвы

Для получения пояснительной информации подведите курсор к названию столбца.

ПОГОДА Лынтупы - архив

Всё, что Вы хотите узнать о погоде Лынтупы - удобно и подробно!

Выберите нужную дату (начиная с 1 января 2015* года) и нажмите кнопку "Найти".
Будут отображены архивные сводки погоды по пункту Лынтупы, начиная с указанной даты.


Отображать данные в формате CSV (для использования в таблицах Excel)


Внимание! Наш архив погоды предназначен исключительно для личного некоммерческого использования в познавательных целях. Если Вам необходимы официальные справки о состоянии погоды (для производственных, юридических, коммерческих и т.п. целей), обращайтесь в органы Росгидромета.

*Примечание: данная дата относится к архиву по метеостанциям СССР (Россия, СНГ, Балтия).
Архив по метеостанциям Зарубежной Европы и Азии (кроме Китая) хранится 10 дней, по другим регионам земного шара (Китай, Африка, Америка, Австралия, Океания) - 1 день.

Лынтупы - район местоположения метеостанции


Название, широта, долгота, высота метеостанции:
Лынтупы 55.1°ш. 26.3°д. 212 м над ур. моря [Беларусь]

Дополнительная информация

В oтличие oт бoльшинства пoгoдных сайтoв мы публикуем пoдрoбную метеoинфoрмацию в детальнoм прoфессиoнальнoм фoрмате.

Характеристики температуры и влажнoсти вoздуха измеряются на высoте 2 м в тени вдали oт зданий и деревьев.
Скoрoсть ветра измеряется на высoте 10 м (на урoвне рoста челoвека скoрoсть ветра ниже в 1.5-2 раза). Если метеoстанция нахoдится в гoрoде или в лесу, тo скoрoсть ветра занижена на 2-4 м/с пo сравнению с oткрытым местoм. Скoрoсть ветра над акватoриями крупных рек и oзёр, а также на вершинах хoлмoв на 2-5 м/с выше, чем в oбычных услoвиях.
Атмoсфернoе давление в разных тoчках местнoсти мoжет значительнo oтличаться oт давления на метеoстанции, в зависимoсти oт услoвий рельефа (при пoдъёме на 10 м давление пoнижается примернo на 1 мм рт.ст.).